| time (UTC) | temp C | wind direction | speed KPH | gust KPH | rain 1hr cm | rain 24hr cm | rain mn cm | humidity % | barometer mb |
| 20260508125906 | 31 | 69 | 8.0 | 11.3 | 0.00 | 0.00 | 0.00 | 60 | 1010.2 |
| 20260508125406 | 31 | 39 | 6.4 | 11.3 | 0.00 | 0.00 | 0.00 | 60 | 1010.2 |
| 20260508124906 | 31 | 60 | 3.2 | 8.0 | 0.00 | 0.00 | 0.00 | 60 | 1010.2 |
| 20260508124406 | 31 | 77 | 4.8 | 8.0 | 0.00 | 0.00 | 0.00 | 60 | 1010.2 |
| 20260508123907 | 31 | 55 | 4.8 | 8.0 | 0.00 | 0.00 | 0.00 | 60 | 1009.8 |
| 20260508123407 | 31 | 68 | 6.4 | 9.7 | 0.00 | 0.00 | 0.00 | 60 | 1009.8 |
| 20260508122907 | 31 | 34 | 4.8 | 9.7 | 0.00 | 0.00 | 0.00 | 60 | 1009.5 |
| 20260508122407 | 31 | 45 | 1.6 | 4.8 | 0.00 | 0.00 | 0.00 | 60 | 1009.8 |
| 20260508121908 | 31 | 62 | 4.8 | 8.0 | 0.00 | 0.00 | 0.00 | 59 | 1009.8 |
| 20260508121406 | 31 | 65 | 6.4 | 11.3 | 0.00 | 0.00 | 0.00 | 59 | 1009.5 |
| 20260508120907 | 31 | 61 | 4.8 | 9.7 | 0.00 | 0.00 | 0.00 | 59 | 1009.8 |
| 20260508120407 | 31 | 71 | 8.0 | 9.7 | 0.00 | 0.00 | 0.00 | 59 | 1009.5 |
| 20260508115907 | 31 | 56 | 6.4 | 12.9 | 0.00 | 0.00 | 0.00 | 58 | 1009.5 |
| 20260508115408 | 31 | 60 | 3.2 | 4.8 | 0.00 | 0.00 | 0.00 | 58 | 1009.5 |
| 20260508114906 | 31 | 42 | 6.4 | 14.5 | 0.00 | 0.00 | 0.00 | 58 | 1009.5 |
| 20260508114406 | 31 | 58 | 3.2 | 8.0 | 0.00 | 0.00 | 0.00 | 58 | 1009.1 |
| 20260508113906 | 31 | 75 | 4.8 | 4.8 | 0.00 | 0.00 | 0.00 | 58 | 1009.5 |
| 20260508113406 | 31 | 89 | 4.8 | 8.0 | 0.00 | 0.00 | 0.00 | 58 | 1009.1 |
| 20260508112906 | 31 | 62 | 3.2 | 4.8 | 0.00 | 0.00 | 0.00 | 58 | 1008.8 |
| 20260508112406 | 31 | 71 | 3.2 | 4.8 | 0.00 | 0.00 | 0.00 | 57 | 1008.8 |
| 20260508111906 | 31 | 80 | 3.2 | 4.8 | 0.00 | 0.00 | 0.00 | 57 | 1009.1 |
| 20260508111406 | 32 | 121 | 1.6 | 3.2 | 0.00 | 0.00 | 0.00 | 57 | 1008.5 |
| 20260508110906 | 32 | 42 | 4.8 | 11.3 | 0.00 | 0.00 | 0.00 | 56 | 1008.8 |
| 20260508110406 | 32 | 23 | 3.2 | 12.9 | 0.00 | 0.00 | 0.00 | 56 | 1008.5 |
| 20260508105906 | 32 | 69 | 8.0 | 12.9 | 0.00 | 0.00 | 0.00 | 56 | 1008.5 |
| 20260508105406 | 32 | 83 | 3.2 | 11.3 | 0.00 | 0.00 | 0.00 | 56 | 1008.5 |
| 20260508104906 | 32 | 64 | 11.3 | 12.9 | 0.00 | 0.00 | 0.00 | 55 | 1008.5 |
| 20260508104408 | 32 | 47 | 6.4 | 11.3 | 0.00 | 0.00 | 0.00 | 55 | 1008.5 |
| 20260508103907 | 32 | 49 | 11.3 | 14.5 | 0.00 | 0.00 | 0.00 | 55 | 1008.5 |
| 20260508103406 | 32 | 35 | 8.0 | 12.9 | 0.00 | 0.00 | 0.00 | 54 | 1008.1 |
| 20260508102906 | 32 | 71 | 11.3 | 16.1 | 0.00 | 0.00 | 0.00 | 54 | 1008.1 |
| 20260508102406 | 32 | 68 | 8.0 | 16.1 | 0.00 | 0.00 | 0.00 | 53 | 1008.1 |
| 20260508101906 | 33 | 71 | 4.8 | 16.1 | 0.00 | 0.00 | 0.00 | 53 | 1007.8 |
| 20260508101408 | 33 | 66 | 9.7 | 16.1 | 0.00 | 0.00 | 0.00 | 53 | 1007.8 |
| 20260508100906 | 33 | 59 | 8.0 | 12.9 | 0.00 | 0.00 | 0.00 | 53 | 1007.8 |
| 20260508100406 | 33 | 74 | 6.4 | 16.1 | 0.00 | 0.00 | 0.00 | 52 | 1007.8 |
| 20260508095906 | 33 | 54 | 4.8 | 9.7 | 0.00 | 0.00 | 0.00 | 52 | 1007.8 |
| 20260508095406 | 33 | 55 | 9.7 | 12.9 | 0.00 | 0.00 | 0.00 | 52 | 1007.8 |
| 20260508094906 | 34 | 46 | 4.8 | 12.9 | 0.00 | 0.00 | 0.00 | 51 | 1007.5 |
| 20260508094406 | 34 | 54 | 11.3 | 12.9 | 0.00 | 0.00 | 0.00 | 50 | 1007.5 |
| 20260508093906 | 34 | 71 | 12.9 | 14.5 | 0.00 | 0.00 | 0.00 | 50 | 1007.5 |
| 20260508093406 | 34 | 55 | 8.0 | 11.3 | 0.00 | 0.00 | 0.00 | 50 | 1007.5 |
| 20260508092906 | 35 | 57 | 9.7 | 16.1 | 0.00 | 0.00 | 0.00 | 49 | 1007.1 |
| 20260508092406 | 35 | 62 | 8.0 | 12.9 | 0.00 | 0.00 | 0.00 | 49 | 1007.1 |
| 20260508091907 | 35 | 69 | 4.8 | 14.5 | 0.00 | 0.00 | 0.00 | 48 | 1007.1 |
| 20260508091406 | 35 | 40 | 9.7 | 12.9 | 0.00 | 0.00 | 0.00 | 47 | 1006.8 |
| 20260508090908 | 35 | 49 | 12.9 | 14.5 | 0.00 | 0.00 | 0.00 | 46 | 1006.8 |
| 20260508090406 | 35 | 56 | 6.4 | 11.3 | 0.00 | 0.00 | 0.00 | 46 | 1006.8 |
| 20260508085907 | 35 | 61 | 8.0 | 9.7 | 0.00 | 0.00 | 0.00 | 46 | 1006.8 |
| 20260508085408 | 35 | 306 | 0.0 | 1.6 | 0.00 | 0.00 | 0.00 | 48 | 1006.8 |
| 20260508084906 | 35 | 293 | 1.6 | 3.2 | 0.00 | 0.00 | 0.00 | 48 | 1006.8 |
| 20260508084407 | 35 | 264 | 1.6 | 3.2 | 0.00 | 0.00 | 0.00 | 48 | 1006.8 |
| 20260508083906 | 35 | 69 | 4.8 | 8.0 | 0.00 | 0.00 | 0.00 | 48 | 1006.8 |
| 20260508083406 | 35 | 75 | 1.6 | 3.2 | 0.00 | 0.00 | 0.00 | 46 | 1006.8 |
| 20260508082906 | 36 | 69 | 6.4 | 8.0 | 0.00 | 0.00 | 0.00 | 46 | 1006.8 |
| 20260508082406 | 36 | 66 | 1.6 | 8.0 | 0.00 | 0.00 | 0.00 | 48 | 1006.4 |
| 20260508081906 | 36 | 46 | 6.4 | 14.5 | 0.00 | 0.00 | 0.00 | 47 | 1006.4 |
| 20260508081406 | 36 | 59 | 1.6 | 3.2 | 0.00 | 0.00 | 0.00 | 49 | 1006.4 |
| 20260508080907 | 36 | 48 | 0.0 | 3.2 | 0.00 | 0.00 | 0.00 | 51 | 1006.8 |
| 20260508080406 | 36 | 68 | 0.0 | 8.0 | 0.00 | 0.00 | 0.00 | 53 | 1006.4 |
| 20260508075906 | 36 | 67 | 1.6 | 8.0 | 0.00 | 0.00 | 0.00 | 52 | 1006.4 |
| 20260508075406 | 35 | 356 | 1.6 | 3.2 | 0.00 | 0.00 | 0.00 | 52 | 1006.4 |
| 20260508074908 | 35 | 78 | 1.6 | 3.2 | 0.00 | 0.00 | 0.00 | 52 | 1006.8 |
| 20260508074407 | 34 | 269 | 3.2 | 4.8 | 0.00 | 0.00 | 0.00 | 55 | 1006.4 |
| 20260508073906 | 35 | 281 | 8.0 | 12.9 | 0.00 | 0.00 | 0.00 | 55 | 1006.4 |
| 20260508073406 | 34 | 298 | 9.7 | 11.3 | 0.00 | 0.00 | 0.00 | 56 | 1006.8 |
| 20260508072906 | 35 | 286 | 8.0 | 16.1 | 0.00 | 0.00 | 0.00 | 53 | 1006.8 |
| 20260508072407 | 34 | 313 | 4.8 | 11.3 | 0.00 | 0.00 | 0.00 | 55 | 1006.8 |
| 20260508071906 | 35 | 303 | 11.3 | 16.1 | 0.00 | 0.00 | 0.00 | 56 | 1006.8 |
| 20260508071407 | 35 | 303 | 6.4 | 14.5 | 0.00 | 0.00 | 0.00 | 54 | 1006.8 |
| 20260508070907 | 35 | 65 | 1.6 | 14.5 | 0.00 | 0.00 | 0.00 | 45 | 1006.8 |
| 20260508070406 | 36 | 46 | 6.4 | 17.7 | 0.00 | 0.00 | 0.00 | 45 | 1006.4 |
| 20260508065907 | 36 | 79 | 4.8 | 17.7 | 0.00 | 0.00 | 0.00 | 45 | 1006.4 |
| 20260508065407 | 36 | 86 | 11.3 | 16.1 | 0.00 | 0.00 | 0.00 | 45 | 1006.8 |
| 20260508064906 | 36 | 103 | 11.3 | 20.9 | 0.00 | 0.00 | 0.00 | 47 | 1006.8 |
| 20260508064407 | 36 | 72 | 3.2 | 20.9 | 0.00 | 0.00 | 0.00 | 47 | 1006.8 |
| 20260508063906 | 37 | 102 | 8.0 | 16.1 | 0.00 | 0.00 | 0.00 | 46 | 1006.1 |
| 20260508063407 | 36 | 59 | 16.1 | 17.7 | 0.00 | 0.00 | 0.00 | 46 | 1006.4 |
| 20260508062907 | 37 | 55 | 4.8 | 4.8 | 0.00 | 0.00 | 0.00 | 47 | 1006.8 |
| 20260508062407 | 36 | 89 | 4.8 | 4.8 | 0.00 | 0.00 | 0.00 | 49 | 1006.8 |
| 20260508061906 | 35 | 146 | 1.6 | 8.0 | 0.00 | 0.00 | 0.00 | 52 | 1007.1 |
| 20260508061406 | 36 | 81 | 8.0 | 8.0 | 0.00 | 0.00 | 0.00 | 52 | 1006.8 |
| 20260508060906 | 36 | 130 | 1.6 | 4.8 | 0.00 | 0.00 | 0.00 | 52 | 1006.8 |
| 20260508060406 | 36 | 170 | 4.8 | 8.0 | 0.00 | 0.00 | 0.00 | 52 | 1006.8 |
| 20260508055906 | 35 | 309 | 4.8 | 8.0 | 0.00 | 0.00 | 0.00 | 53 | 1006.8 |
| 20260508055407 | 35 | 267 | 9.7 | 12.9 | 0.00 | 0.00 | 0.00 | 54 | 1007.1 |
| 20260508054906 | 34 | 240 | 4.8 | 4.8 | 0.00 | 0.00 | 0.00 | 58 | 1007.5 |
| 20260508054407 | 35 | 252 | 8.0 | 12.9 | 0.00 | 0.00 | 0.00 | 56 | 1007.5 |
| 20260508053906 | 35 | 247 | 6.4 | 14.5 | 0.00 | 0.00 | 0.00 | 56 | 1007.5 |
| 20260508053406 | 36 | 303 | 8.0 | 11.3 | 0.00 | 0.00 | 0.00 | 53 | 1007.1 |
| 20260508052906 | 37 | 262 | 3.2 | 8.0 | 0.00 | 0.00 | 0.00 | 50 | 1007.5 |
| 20260508052406 | 37 | 60 | 4.8 | 16.1 | 0.00 | 0.00 | 0.00 | 48 | 1007.8 |
| 20260508051906 | 37 | 64 | 11.3 | 14.5 | 0.00 | 0.00 | 0.00 | 46 | 1007.5 |
| 20260508051406 | 37 | 53 | 6.4 | 14.5 | 0.00 | 0.00 | 0.00 | 47 | 1007.5 |
| 20260508050906 | 37 | 75 | 8.0 | 12.9 | 0.00 | 0.00 | 0.00 | 47 | 1007.8 |
| 20260508050406 | 37 | 76 | 8.0 | 11.3 | 0.00 | 0.00 | 0.00 | 47 | 1007.8 |
| 20260508045906 | 37 | 91 | 9.7 | 12.9 | 0.00 | 0.00 | 0.00 | 47 | 1007.8 |
| 20260508045407 | 36 | 83 | 6.4 | 11.3 | 0.00 | 0.00 | 0.00 | 49 | 1008.5 |
| 20260508044906 | 36 | 78 | 6.4 | 12.9 | 0.00 | 0.00 | 0.00 | 48 | 1008.1 |
| 20260508044406 | 36 | 82 | 16.1 | 22.5 | 0.00 | 0.00 | 0.00 | 48 | 1007.8 |
| 20260508043906 | 36 | 17 | 1.6 | 9.7 | 0.00 | 0.00 | 0.00 | 49 | 1008.1 |
| 20260508043406 | 37 | 91 | 6.4 | 17.7 | 0.00 | 0.00 | 0.00 | 47 | 1008.5 |
| 20260508042907 | 36 | 56 | 8.0 | 12.9 | 0.00 | 0.00 | 0.00 | 47 | 1008.5 |
| 20260508042406 | 36 | 39 | 4.8 | 9.7 | 0.00 | 0.00 | 0.00 | 47 | 1008.8 |
| 20260508041907 | 35 | 76 | 4.8 | 4.8 | 0.00 | 0.00 | 0.00 | 49 | 1008.5 |
| 20260508041406 | 35 | 57 | 8.0 | 12.9 | 0.00 | 0.00 | 0.00 | 50 | 1008.5 |
| 20260508040907 | 36 | 35 | 4.8 | 12.9 | 0.00 | 0.00 | 0.00 | 50 | 1008.8 |
| 20260508040406 | 37 | 65 | 8.0 | 12.9 | 0.00 | 0.00 | 0.00 | 48 | 1008.8 |
| 20260508035906 | 36 | 29 | 1.6 | 9.7 | 0.00 | 0.00 | 0.00 | 46 | 1008.5 |
| 20260508035406 | 36 | 110 | 4.8 | 12.9 | 0.00 | 0.00 | 0.00 | 46 | 1008.8 |
| 20260508034906 | 35 | 308 | 6.4 | 9.7 | 0.00 | 0.00 | 0.00 | 49 | 1009.1 |
| 20260508034406 | 35 | 70 | 4.8 | 8.0 | 0.00 | 0.00 | 0.00 | 51 | 1009.1 |
| 20260508033909 | 35 | 71 | 3.2 | 8.0 | 0.00 | 0.00 | 0.00 | 53 | 1009.1 |
| 20260508033407 | 35 | 17 | 3.2 | 8.0 | 0.00 | 0.00 | 0.00 | 54 | 1009.1 |
| 20260508032906 | 35 | 65 | 14.5 | 17.7 | 0.00 | 0.00 | 0.00 | 50 | 1009.1 |
| 20260508032407 | 35 | 55 | 4.8 | 9.7 | 0.00 | 0.00 | 0.00 | 51 | 1009.1 |
| 20260508031906 | 34 | 82 | 6.4 | 14.5 | 0.00 | 0.00 | 0.00 | 53 | 1009.1 |
| 20260508031406 | 34 | 243 | 6.4 | 8.0 | 0.00 | 0.00 | 0.00 | 58 | 1009.5 |
| 20260508030907 | 33 | 211 | 6.4 | 11.3 | 0.00 | 0.00 | 0.00 | 61 | 1009.5 |
| 20260508030406 | 33 | 231 | 6.4 | 8.0 | 0.00 | 0.00 | 0.00 | 60 | 1009.5 |
| 20260508025906 | 34 | 225 | 11.3 | 12.9 | 0.00 | 0.00 | 0.00 | 57 | 1009.5 |
| 20260508025406 | 34 | 200 | 8.0 | 11.3 | 0.00 | 0.00 | 0.00 | 58 | 1009.8 |
| 20260508024906 | 33 | 80 | 11.3 | 17.7 | 0.00 | 0.00 | 0.00 | 58 | 1009.5 |
| 20260508024406 | 33 | 166 | 4.8 | 20.9 | 0.00 | 0.00 | 0.00 | 60 | 1009.8 |
| 20260508023907 | 35 | 212 | 1.6 | 12.9 | 0.00 | 0.00 | 0.00 | 59 | 1010.2 |
| 20260508023406 | 34 | 110 | 4.8 | 11.3 | 0.00 | 0.00 | 0.00 | 57 | 1009.8 |
| 20260508022906 | 34 | 223 | 9.7 | 12.9 | 0.00 | 0.00 | 0.00 | 58 | 1010.2 |
| 20260508022407 | 35 | 123 | 3.2 | 8.0 | 0.00 | 0.00 | 0.00 | 55 | 1010.2 |
| 20260508021907 | 35 | 168 | 4.8 | 11.3 | 0.00 | 0.00 | 0.00 | 56 | 1010.2 |
| 20260508021406 | 35 | 53 | 6.4 | 14.5 | 0.00 | 0.00 | 0.00 | 54 | 1010.2 |
| 20260508020907 | 34 | 347 | 9.7 | 17.7 | 0.00 | 0.00 | 0.00 | 56 | 1010.2 |
| 20260508020406 | 34 | 135 | 9.7 | 14.5 | 0.00 | 0.00 | 0.00 | 55 | 1010.2 |
| 20260508015906 | 34 | 65 | 4.8 | 9.7 | 0.00 | 0.00 | 0.00 | 56 | 1010.2 |
| 20260508015406 | 33 | 108 | 1.6 | 14.5 | 0.00 | 0.00 | 0.00 | 56 | 1010.2 |
| 20260508014906 | 34 | 64 | 8.0 | 14.5 | 0.00 | 0.00 | 0.00 | 55 | 1010.2 |
| 20260508014406 | 34 | 99 | 1.6 | 9.7 | 0.00 | 0.00 | 0.00 | 56 | 1010.5 |
| 20260508013906 | 33 | 49 | 3.2 | 4.8 | 0.00 | 0.00 | 0.00 | 57 | 1010.2 |
| 20260508013406 | 33 | 110 | 0.0 | 4.8 | 0.00 | 0.00 | 0.00 | 59 | 1010.2 |
| 20260508012906 | 33 | 69 | 4.8 | 9.7 | 0.00 | 0.00 | 0.00 | 59 | 1010.5 |
| 20260508012406 | 33 | 60 | 4.8 | 16.1 | 0.00 | 0.00 | 0.00 | 58 | 1010.5 |
| 20260508011906 | 33 | 141 | 4.8 | 14.5 | 0.00 | 0.00 | 0.00 | 58 | 1010.5 |
| 20260508011406 | 34 | 66 | 9.7 | 14.5 | 0.00 | 0.00 | 0.00 | 56 | 1010.5 |
| 20260508010906 | 33 | 56 | 8.0 | 11.3 | 0.00 | 0.00 | 0.00 | 58 | 1010.5 |
| 20260508010407 | 35 | 133 | 8.0 | 14.5 | 0.00 | 0.00 | 0.00 | 55 | 1010.5 |
| 20260508005907 | 33 | 68 | 3.2 | 8.0 | 0.00 | 0.00 | 0.00 | 58 | 1010.8 |
| 20260508005406 | 33 | 61 | 8.0 | 11.3 | 0.00 | 0.00 | 0.00 | 58 | 1010.8 |
| 20260508004906 | 33 | 52 | 3.2 | 12.9 | 0.00 | 0.00 | 0.00 | 60 | 1010.8 |
| 20260508004406 | 33 | 99 | 6.4 | 11.3 | 0.00 | 0.00 | 0.00 | 60 | 1010.5 |
| 20260508003907 | 33 | 122 | 4.8 | 12.9 | 0.00 | 0.00 | 0.00 | 58 | 1010.8 |
| 20260508003406 | 32 | 28 | 6.4 | 12.9 | 0.00 | 0.00 | 0.00 | 60 | 1010.8 |
| 20260508002907 | 33 | 61 | 8.0 | 14.5 | 0.00 | 0.00 | 0.00 | 57 | 1010.8 |
| 20260508002406 | 32 | 59 | 8.0 | 11.3 | 0.00 | 0.00 | 0.00 | 59 | 1010.8 |
| 20260508001906 | 33 | 67 | 6.4 | 9.7 | 0.00 | 0.00 | 0.00 | 58 | 1010.8 |
| 20260508001406 | 33 | 36 | 4.8 | 9.7 | 0.00 | 0.00 | 0.00 | 59 | 1010.5 |
| 20260508000906 | 32 | 66 | 3.2 | 4.8 | 0.00 | 0.00 | 0.00 | 60 | 1010.5 |
| 20260507234506 | 33 | 45 | 0.0 | 3.2 | 0.00 | 0.00 | 0.00 | 60 | 1010.5 |
| 20260507131608 | 30 | 50 | 9.7 | 12.9 | 0.00 | 0.00 | 0.00 | 64 | 1009.1 |
| 20260507131107 | 30 | 63 | 4.8 | 9.7 | 0.00 | 0.00 | 0.00 | 64 | 1009.1 |
| 20260507130607 | 30 | 66 | 6.4 | 8.0 | 0.00 | 0.00 | 0.00 | 64 | 1009.1 |
| 20260507130106 | 30 | 65 | 4.8 | 11.3 | 0.00 | 0.00 | 0.00 | 64 | 1009.5 |